Altoona, PA

9:51 PM EDT on October 18, 2019 (GMT -0400)
Altoona-Blair County

Weather History for KAOO - August, 2019

Change the Weather History Date:

Tuesday, August 20, 2019

  Actual Average Record
Temperature  
Mean Temperature 74 °F 69 °F  
Max Temperature 85 °F 80 °F 97 °F (1962)
Min Temperature 63 °F 58 °F 45 °F (1949)
Degree Days  
Heating Degree Days 0 1  
Month to date heating degree days 0 12  
Since 1 June heating degree days 38 80  
Since 1 July heating degree days 0 22  
Cooling Degree Days 9 5  
Month to date cooling degree days 144 111  
Year to date cooling degree days 606 438  
Since 1 June cooling degree days 537 405  
Growing Degree Days 24 (Base 50)    
Moisture  
Dew Point 66 °F    
Average Humidity 76    
Maximum Humidity 93    
Minimum Humidity 58    
Precipitation  
Precipitation 0.00 in 0.09 in 1.56 in (1997)
Month to date precipitation 2.04 1.90  
Year to date precipitation 28.94 22.82  
Sea Level Pressure  
Sea Level Pressure 30.09 in    
Wind  
Wind Speed 4 mph (SSW)    
Max Wind Speed 16 mph    
Max Gust Speed 21 mph    
Visibility 9 miles    
Events      
T = Trace of Precipitation, MM = Missing Value Source: NWS Daily Summary

Daily Weather History Graph

Daily Weather History Graph

Search for Another Location

Airport or City:

Astronomy

Aug. 20, 2019 Rise Set
Actual Time 6:28 AM EDT 8:03 PM EDT
Civil Twilight 6:00 AM EDT 8:32 PM EDT
Nautical Twilight 5:25 AM EDT 9:07 PM EDT
Astronomical Twilight 4:48 AM EDT 9:43 PM EDT
Moon 10:50 PM EDT (8/20) 11:05 AM EDT (8/20)
Length of Visible Light 14h 32m
Length of Day
13h 34m
Waning Gibbous, 78% of the Moon is Illuminated
Aug 20
Waning Gibbous
Aug 23
Last Quarter
Aug 30
New
Sep 5
First Quarter
Sep 14
Full

Hourly Weather History & Observations

Time (EDT) Temp. Heat Index Dew Point Humidity Pressure Visibility Wind Dir Wind Speed Gust Speed Precip Events Conditions
12:53 AM 70.0 °F - 64.0 °F 81% 30.09 in 10.0 mi Calm Calm - N/A   Scattered Clouds
1:53 AM 66.9 °F - 63.0 °F 87% 30.09 in 10.0 mi Calm Calm - N/A   Clear
2:53 AM 66.0 °F - 63.0 °F 90% 30.09 in 10.0 mi Calm Calm - N/A   Clear
3:53 AM 64.9 °F - 62.1 °F 90% 30.09 in 9.0 mi Calm Calm - N/A   Clear
4:53 AM 66.0 °F - 63.0 °F 90% 30.09 in 8.0 mi Calm Calm - N/A   Clear
5:53 AM 64.0 °F - 62.1 °F 93% 30.12 in 4.0 mi Calm Calm - N/A   Clear
6:53 AM 64.9 °F - 62.1 °F 90% 30.13 in 5.0 mi Calm Calm - N/A   Mostly Cloudy
7:53 AM 69.1 °F - 64.9 °F 87% 30.14 in 7.0 mi Calm Calm - N/A   Partly Cloudy
8:53 AM 72.0 °F - 66.0 °F 81% 30.14 in 10.0 mi Calm Calm - N/A   Clear
9:53 AM 78.1 °F - 66.9 °F 68% 30.14 in 10.0 mi Calm Calm - N/A   Clear
10:53 AM 80.1 °F 82.3 °F 66.9 °F 64% 30.14 in 10.0 mi Calm Calm - N/A   Mostly Cloudy
12:53 PM 84.0 °F 87.8 °F 69.1 °F 61% 30.12 in 10.0 mi SSE 8.1 mph - N/A   Mostly Cloudy
1:53 PM 82.9 °F 85.8 °F 68.0 °F 60% 30.11 in 10.0 mi South 4.6 mph - N/A   Scattered Clouds
2:53 PM 79.0 °F - 64.9 °F 62% 30.10 in 10.0 mi SW 13.8 mph 20.7 mph N/A   Mostly Cloudy
3:53 PM 77.0 °F - 66.0 °F 69% 30.10 in 10.0 mi SSW 6.9 mph - N/A   Mostly Cloudy
4:53 PM 82.0 °F 84.5 °F 66.9 °F 60% 30.06 in 10.0 mi SSW 5.8 mph - N/A   Clear
5:53 PM 82.0 °F 84.5 °F 66.9 °F 60% 30.06 in 10.0 mi SW 10.4 mph - N/A   Clear
6:53 PM 80.1 °F 82.7 °F 68.0 °F 67% 30.03 in 10.0 mi South 6.9 mph - N/A   Clear
7:53 PM 77.0 °F - 68.0 °F 74% 30.04 in 10.0 mi South 6.9 mph - N/A   Clear
8:53 PM 75.0 °F - 66.9 °F 76% 30.04 in 10.0 mi South 8.1 mph - N/A   Clear
9:53 PM 71.1 °F - 66.9 °F 87% 30.03 in 10.0 mi South 4.6 mph - N/A   Clear
10:53 PM 71.1 °F - 66.0 °F 84% 30.03 in 10.0 mi South 3.5 mph - N/A   Clear
11:53 PM 72.0 °F - 64.9 °F 78% 30.03 in 10.0 mi SSW 4.6 mph - N/A   Clear